Location: Township of Marena
(38.1747°N, 99.6798°W)
Time: 03:13:54
(UTC+00:00)

SL-4 R/B - Pass Details

Date: 26 October 2020
Orbit: 427 x 665 km, 51.6° (Epoch: 27 November)

Event Time Altitude Azimuth Distance (km) Brightness Sun altitude
Rises 00:15:19 0° 296° (WNW) 2,419 6.3 -6.3°
Reaches altitude 10° 00:18:56 10° 336° (NNW) 1,589 4.6 -7.0°
Maximum altitude 00:19:54 11° 352° (N) 1,551 4.3 -7.2°
Drops below altitude 10° 00:20:52 10° 8° (N) 1,616 4.2 -7.4°
Enters shadow 00:23:30 - 38° (NE) 2,193 4.6 -7.9°
